Location: Briis
(48.6240°N, 2.1211°E)
Time: 10:38:31
(UTC+00:00)

USA 305 - Pass Details

Date: 25 September 2020
Orbit: 566 x 580 km, 54.0° (Epoch: 28 October)

Event Time Altitude Azimuth Distance (km) Brightness Sun altitude
Exits shadow 04:12:32 17° 301° (WNW) 1,465 4.6 -15.5°
Maximum altitude 04:15:25 40° 4° (N) 849 3.9 -15.1°
Drops below altitude 10° 04:19:25 10° 75° (ENE) 1,866 7.0 -14.4°
Sets 04:21:47 0° 83° (E) 2,762 8.3 -14.1°
